When you browse on this site, cookies collect data to enhance your experience and personalize the content and advertising you see.
Visit our Privacy Policy to learn more. By continuing to use the site, you agree to this use of cookies and data.
  • In Czech Republic
  • List of Countries
  • For 7 days
  • Water Temperature
  • Satellite Maps
  • Weather Map
  • Weather Widgets
  • user-avatar
    Login

    Hourly Weather Hamilton

    Today, 17 June, Monday

    Time Temperature Precipitation Wind Pressure Humidity
    00:00 +14°C° 0 mm 1 mps 746 mmHg 75%
    01:00 +14°C° 0 mm 1 mps 746 mmHg 74%
    02:00 +14°C° 0 mm 2 mps 746 mmHg 77%
    03:00 +13°C° 0 mm 2 mps 746 mmHg 80%
    04:00 +13°C° 0 mm 2 mps 746 mmHg 83%
    05:00 +14°C° 0 mm 2 mps 746 mmHg 81%
    06:00 +15°C° 0 mm 2 mps 747 mmHg 79%
    07:00 +15°C° 0 mm 2 mps 747 mmHg 77%
    08:00 +17°C° 0 mm 2 mps 747 mmHg 73%
    09:00 +18°C° 0 mm 2 mps 747 mmHg 68%
    10:00 +20°C° 0 mm 3 mps 747 mmHg 64%
    11:00 +20°C° 0 mm 3 mps 747 mmHg 62%
    12:00 +21°C° 0 mm 3 mps 747 mmHg 60%
    13:00 +22°C° 0 mm 3 mps 747 mmHg 58%
    14:00 +21°C° 0 mm 3 mps 747 mmHg 59%
    15:00 +21°C° 0 mm 3 mps 747 mmHg 60%
    16:00 +21°C° 0 mm 3 mps 746 mmHg 61%
    17:00 +20°C° 0 mm 2 mps 746 mmHg 65%
    18:00 +19°C° 0 mm 2 mps 746 mmHg 68%
    19:00 +18°C° 0 mm 2 mps 746 mmHg 72%
    20:00 +17°C° 0 mm 2 mps 746 mmHg 73%
    21:00 +16°C° 0 mm 2 mps 746 mmHg 73%
    22:00 +15°C° 0 mm 1 mps 746 mmHg 73%
    23:00 +15°C° 0 mm 2 mps 746 mmHg 73%

    Tomorrow, 18 June, Tuesday

    Time Temperature Precipitation Wind Pressure Humidity
    00:00 +15°C° 0 mm 2 mps 746 mmHg 72%
    01:00 +15°C° 0 mm 2 mps 746 mmHg 72%
    02:00 +15°C° 0 mm 2 mps 746 mmHg 73%
    03:00 +15°C° 0 mm 2 mps 746 mmHg 74%
    04:00 +14°C° 0 mm 2 mps 745 mmHg 75%
    05:00 +15°C° 0 mm 2 mps 746 mmHg 75%
    06:00 +16°C° 0 mm 2 mps 746 mmHg 76%
    07:00 +17°C° 0 mm 2 mps 746 mmHg 76%
    08:00 +18°C° 0 mm 2 mps 746 mmHg 71%
    09:00 +21°C° 0 mm 1 mps 746 mmHg 67%
    10:00 +22°C° 0 mm 1 mps 746 mmHg 62%
    11:00 +24°C° 0 mm 1 mps 746 mmHg 60%
    12:00 +25°C° 0 mm 1 mps 745 mmHg 59%
    13:00 +26°C° 0 mm 1 mps 745 mmHg 57%
    14:00 +26°C° 0 mm 1 mps 745 mmHg 57%
    15:00 +26°C° 0 mm 1 mps 744 mmHg 58%
    16:00 +26°C° 0 mm 1 mps 744 mmHg 58%
    17:00 +25°C° 0.1 mm 1 mps 744 mmHg 63%
    18:00 +24°C° 0.1 mm 1 mps 744 mmHg 69%
    19:00 +23°C° 0.1 mm 1 mps 744 mmHg 74%
    20:00 +22°C° 0 mm 1 mps 744 mmHg 77%
    21:00 +20°C° 0 mm 1 mps 744 mmHg 80%
    22:00 +19°C° 0 mm 1 mps 744 mmHg 83%
    23:00 +19°C° 0 mm 1 mps 744 mmHg 85%

    Day after tomorrow, 19 June, Wednesday

    Time Temperature Precipitation Wind Pressure Humidity
    00:00 +18°C° 0 mm 1 mps 744 mmHg 87%
    01:00 +18°C° 0 mm 1 mps 743 mmHg 89%
    02:00 +18°C° 0 mm 1 mps 743 mmHg 89%
    03:00 +18°C° 0 mm 1 mps 743 mmHg 90%
    04:00 +16°C° 0 mm 1 mps 742 mmHg 91%
    05:00 +16°C° 0 mm 0 mps 743 mmHg 88%
    06:00 +17°C° 0 mm 0 mps 743 mmHg 86%
    07:00 +18°C° 0 mm 0 mps 743 mmHg 84%
    08:00 +20°C° 0 mm 0 mps 743 mmHg 79%
    09:00 +21°C° 0 mm 0 mps 743 mmHg 74%
    10:00 +23°C° 0 mm 0 mps 743 mmHg 68%
    11:00 +25°C° 0.2 mm 1 mps 742 mmHg 67%
    12:00 +26°C° 0.2 mm 1 mps 742 mmHg 66%
    13:00 +26°C° 0.2 mm 1 mps 742 mmHg 64%
    14:00 +26°C° 0.5 mm 1 mps 741 mmHg 65%
    15:00 +26°C° 0.5 mm 1 mps 741 mmHg 66%
    16:00 +25°C° 0.5 mm 1 mps 741 mmHg 67%
    17:00 +24°C° 0.3 mm 2 mps 740 mmHg 72%
    18:00 +23°C° 0.3 mm 2 mps 740 mmHg 77%
    19:00 +21°C° 0.3 mm 2 mps 740 mmHg 81%
    20:00 +20°C° 0 mm 2 mps 740 mmHg 82%
    21:00 +19°C° 0 mm 2 mps 739 mmHg 82%
    22:00 +18°C° 0 mm 2 mps 739 mmHg 83%
    23:00 +18°C° 0 mm 3 mps 739 mmHg 83%

    20 June, Thursday

    Time Temperature Precipitation Wind Pressure Humidity
    00:00 +18°C° 0 mm 4 mps 738 mmHg 82%
    01:00 +17°C° 0 mm 5 mps 738 mmHg 82%
    02:00 +16°C° 1.5 mm 5 mps 737 mmHg 86%
    03:00 +15°C° 1.5 mm 6 mps 736 mmHg 90%
    04:00 +15°C° 1.5 mm 6 mps 735 mmHg 94%
    05:00 +15°C° 2.9 mm 6 mps 735 mmHg 95%
    06:00 +15°C° 2.9 mm 6 mps 735 mmHg 96%
    07:00 +15°C° 2.9 mm 5 mps 735 mmHg 97%
    08:00 +15°C° 2 mm 6 mps 735 mmHg 96%
    09:00 +15°C° 2 mm 6 mps 735 mmHg 96%
    10:00 +15°C° 2 mm 6 mps 735 mmHg 96%
    11:00 +15°C° 0.2 mm 6 mps 735 mmHg 95%
    12:00 +15°C° 0.2 mm 6 mps 735 mmHg 95%
    13:00 +15°C° 0.2 mm 6 mps 736 mmHg 95%
    14:00 +16°C° 0.1 mm 5 mps 736 mmHg 94%
    15:00 +16°C° 0.1 mm 5 mps 736 mmHg 93%
    16:00 +17°C° 0.1 mm 4 mps 736 mmHg 92%
    17:00 +17°C° 0 mm 4 mps 737 mmHg 91%
    18:00 +18°C° 0 mm 3 mps 738 mmHg 91%
    19:00 +18°C° 0 mm 2 mps 739 mmHg 90%
    20:00 +17°C° 0 mm 2 mps 739 mmHg 90%
    21:00 +17°C° 0 mm 2 mps 740 mmHg 90%
    22:00 +16°C° 0 mm 2 mps 740 mmHg 91%
    23:00 +16°C° 0 mm 2 mps 740 mmHg 89%

    21 June, Friday

    Time Temperature Precipitation Wind Pressure Humidity
    00:00 +14°C° 0 mm 3 mps 741 mmHg 86%
    01:00 +13°C° 0 mm 3 mps 741 mmHg 84%
    02:00 +14°C° 0 mm 2 mps 741 mmHg 83%
    03:00 +14°C° 0 mm 2 mps 742 mmHg 83%
    04:00 +13°C° 0 mm 2 mps 742 mmHg 82%
    05:00 +14°C° 0 mm 2 mps 743 mmHg 80%
    06:00 +15°C° 0 mm 2 mps 743 mmHg 78%
    07:00 +16°C° 0 mm 2 mps 744 mmHg 76%
    08:00 +18°C° 0 mm 2 mps 744 mmHg 70%
    09:00 +20°C° 0 mm 3 mps 745 mmHg 63%
    10:00 +22°C° 0 mm 3 mps 745 mmHg 57%
    11:00 +22°C° 0 mm 4 mps 745 mmHg 55%
    12:00 +23°C° 0 mm 4 mps 746 mmHg 53%
    13:00 +23°C° 0 mm 4 mps 746 mmHg 52%
    14:00 +23°C° 0 mm 4 mps 746 mmHg 52%
    15:00 +23°C° 0 mm 4 mps 746 mmHg 53%
    16:00 +23°C° 0 mm 4 mps 746 mmHg 54%
    17:00 +22°C° 0 mm 4 mps 746 mmHg 59%
    18:00 +21°C° 0 mm 3 mps 747 mmHg 64%
    19:00 +20°C° 0 mm 3 mps 747 mmHg 68%
    20:00 +19°C° 0 mm 3 mps 747 mmHg 71%
    21:00 +17°C° 0 mm 2 mps 747 mmHg 73%
    22:00 +16°C° 0 mm 2 mps 748 mmHg 75%
    23:00 +15°C° 0 mm 2 mps 748 mmHg 76%

    22 June, Saturday

    Time Temperature Precipitation Wind Pressure Humidity
    00:00 +15°C° 0 mm 2 mps 748 mmHg 77%
    01:00 +14°C° 0 mm 2 mps 748 mmHg 78%
    02:00 +14°C° 0 mm 2 mps 748 mmHg 77%
    03:00 +13°C° 0 mm 2 mps 748 mmHg 76%
    04:00 +13°C° 0 mm 1 mps 748 mmHg 75%
    05:00 +14°C° 0 mm 1 mps 749 mmHg 73%
    06:00 +15°C° 0 mm 1 mps 749 mmHg 71%
    07:00 +18°C° 0 mm 1 mps 750 mmHg 69%
    08:00 +19°C° 0 mm 1 mps 750 mmHg 64%
    09:00 +21°C° 0 mm 1 mps 750 mmHg 60%
    10:00 +23°C° 0 mm 1 mps 750 mmHg 55%
    11:00 +24°C° 0 mm 1 mps 750 mmHg 52%
    12:00 +24°C° 0 mm 1 mps 750 mmHg 49%
    13:00 +25°C° 0 mm 1 mps 750 mmHg 46%
    14:00 +25°C° 0 mm 1 mps 749 mmHg 47%
    15:00 +25°C° 0 mm 1 mps 749 mmHg 48%
    16:00 +25°C° 0 mm 1 mps 749 mmHg 49%
    17:00 +24°C° 0 mm 1 mps 749 mmHg 55%
    18:00 +23°C° 0 mm 1 mps 749 mmHg 62%
    19:00 +22°C° 0 mm 1 mps 749 mmHg 69%
    20:00 +21°C° 0 mm 1 mps 749 mmHg 70%
    21:00 +19°C° 0 mm 1 mps 748 mmHg 71%
    22:00 +18°C° 0 mm 1 mps 748 mmHg 71%
    23:00 +16°C° 0 mm 1 mps 748 mmHg 72%
    Show more